Location: Banksville Park
(38.5557°N, 75.1182°W)
Time: 22:53:21
(UTC+00:00)

Cosmos 1125 Rocket - Pass Details

Date: 19 September 2020
Orbit: 757 x 780 km, 74.0° (Epoch: 21 October)

Event Time Altitude Azimuth Distance (km) Brightness Sun altitude
Rises 01:36:25 0° 214° (SSW) 3,240 6.8 -29.6°
Reaches altitude 10° 01:38:53 10° 220° (SW) 2,320 6.1 -30.0°
Maximum altitude 01:43:55 46° 293° (WNW) 1,047 4.5 -30.8°
Drops below altitude 10° 01:49:02 10° 6° (N) 2,339 6.3 -31.7°
Sets 01:51:32 0° 13° (NNE) 3,271 7.0 -32.1°
